Location: Bailleul
(50.3375°N, 2.8513°E)
Time: 10:37:40
(UTC+00:00)

Cosmos 389 Rocket - Pass Details

Date: 16 June 2021
Orbit: 440 x 471 km, 81.1° (Epoch: 27 July)

Event Time Altitude Azimuth Distance (km) Brightness Sun altitude
Rises 23:30:50 0° 334° (NNW) 2,446 7.5 -16.2°
Reaches altitude 10° 23:33:18 10° 315° (NW) 1,571 5.9 -16.2°
Maximum altitude 23:35:45 19° 270° (W) 1,144 4.5 -16.2°
Enters shadow 23:37:02 15° 241° (WSW) 1,276 4.4 -16.2°
